[[{"header":{"parameterUnit":"m.s-1","parameterCategory":1,"la1":30.2991,"la2":30.254,"lo1":-89.0895,"lo2":-89.0444,"dy":0.0017,"dx":0.0017,"nx":28,"ny":28,"refTime":"2023-08-11T09:00:00:Z","depth":0,"parameterNumber":2,"parameterNumberName":"U-component_of_WINDS"},"data":[0,0,0,0,0,0,0,0,0,0,0,0,0,0,0,0,0,0,0,0,0,0,0,0,0,0,0,0,0,0,0,0,0,0,0,0,0,0,0,0,0,0,0,0,0,0,0,0,0,0,0,0,0,0,0,0,0,0,0.8911,0.8914,0,0.9149,0.9152,0.9155,0.9206,0.9204,0.9203,0.9201,0.945,0.9458,0.9466,0,0,0,0,0,0,0,0,0,0,0,0,0,0.8505,0.8513,0.8911,0.8914,0.8917,0.9149,0.9152,0.9156,0.9207,0.9204,0.9202,0.92,0.9447,0.9457,0.9467,0,0,0,0,0,0,0,0,0,0,0,0,0,0.8706,0.8515,0.891,0.897,0.8978,0.9148,0.9152,0.9156,0.9207,0.9204,0.9202,0.9199,0.9444,0.9456,0.9468,0.9597,0,0,0.9506,0.9511,0,0,0,0,0,0,0,0,0.8695,0.8721,0.8958,0.8966,0.8975,0.9145,0.9101,0.9304,0.9208,0.912,0.9201,0.9198,0.9351,0.9371,0.9421,0.9609,0.962,0.9507,0.9515,0.952,0.9523,0,0,0,0,0,0,0,0.8681,0.8711,0.9005,0.8962,0.8972,0.8987,0.9013,0.9139,0.9248,0.9128,0.9132,0.9159,0.9355,0.9409,0.9428,0.9623,0.9507,0.9518,0.9525,0.953,0.9933,0.9936,0,0,0,0,0,0,0.8656,0.8699,0.8998,0.9012,0.8826,0.8996,0.9025,0.9093,0.9246,0.9267,0.9161,0.9161,0.939,0.9413,0.9437,0.9601,0.952,0.9531,0.9539,0.993,0.9933,0.9937,0,0,0,0,0,0,0.8647,0.8682,0.8988,0.8857,0.8897,0.9006,0.9083,0.91,0.9154,0.9272,0.9292,0.9196,0.9388,0.9419,0.9558,0.961,0.9537,0.9548,0.9926,0.9931,0.9935,0.9928,0,0,0,0,0,0,0.8635,0.8678,0.8727,0.8858,0.8904,0.9103,0.9086,0.9106,0.9175,0.9176,0.931,0.933,0.9389,0.9539,0.957,0.9626,0.9558,0.9922,0.9928,0.9934,0.9924,0.9932,0.9939,0,0,0,0,0,0.862,0.8716,0.8729,0.8765,0.8967,0.9106,0.9133,0.9197,0.9178,0.923,0.9306,0.9325,0.9599,0.9552,0.9588,0.9648,0.9919,0.9926,0.9933,0.9921,0.9931,0.9939,0,0,0,0,0,0,0.8589,0.8734,0.8751,0.8891,0.8986,0.9114,0.9181,0.9205,0.9308,0.9306,0.9383,0.9413,0.9547,0.9611,0.9557,0.9783,0.9758,0.9773,0.9737,0.9747,0.9754,0.9737,0.9568,0,0,0,0,0,0.8598,0.8698,0.8819,0.8931,0.8978,0.9071,0.9134,0.9176,0.9278,0.9319,0.9405,0.9504,0.9613,0.9683,0.9789,0.9933,0.9965,0.9993,1.0,1.0005,1.0018,1.0102,1.0117,0.9961,0.9961,0.9961,0,0,0.8619,0.871,0.8768,0.8927,0.9006,0.9109,0.9105,0.9213,0.9292,0.9336,0.9472,0.9538,0.9655,0.9797,0.9865,0.9855,1.0068,1.0015,1.0018,1.0028,1.0112,1.0126,1.0139,0.9966,0.9965,0.9964,0,0,0.871,0.8787,0.8891,0.897,0.9088,0.915,0.9174,0.9301,0.9346,0.9484,0.952,0.9615,0.9799,0.9882,0.9948,1.0072,1.0096,1.0105,1.0145,1.0226,1.0238,1.025,1.0297,1.0313,1.0116,1.0117,1.0117,0,0.8721,0.8876,0.8941,0.905,0.912,0.9163,0.927,0.9344,0.9492,0.954,0.9527,0.9762,0.9843,1.0007,1.0037,1.0088,1.0122,1.0091,1.0231,1.0243,1.0254,1.0301,1.0318,1.0117,1.0117,1.0117,1.0117,0,0.8886,0.8993,0.9063,0.9204,0.9282,0.9389,0.9472,0.9544,0.9579,0.9643,0.9784,0.9883,1.0012,1.0053,1.0088,1.0224,1.0215,1.0215,1.0192,1.0269,1.0314,1.0332,1.0118,1.0118,1.0118,1.0117,0,0,0.8964,0.9141,0.9165,0.9232,0.9366,0.9452,0.9562,0.9687,0.9748,0.9849,0.9945,1.0101,1.0103,1.0178,1.0223,1.0294,1.0391,1.0287,1.0291,1.0306,1.055,1.0551,1.057,1.0406,1.0409,1.0412,1.0541,0,0.9074,0.9271,0.9333,0.9498,0.9601,0.9644,0.9741,0.9835,0.9898,0.9995,1.0065,1.0175,1.0168,1.0214,1.0286,1.0363,1.0441,1.0355,1.05,1.0504,1.0472,1.0593,1.0594,1.071,1.0559,1.0562,1.0564,0,0.9228,0.9331,0.9506,0.9631,0.9677,0.9762,0.9883,0.9974,1.0083,1.0124,1.0209,1.0249,1.0368,1.0336,1.0503,1.0443,1.0506,1.0553,1.056,1.0578,1.054,1.0618,1.0749,1.0768,1.0591,1.0589,1.0587,0,0.9272,0.9454,0.9584,0.9639,0.9786,0.9846,0.991,1.0017,1.0089,1.0195,1.0243,1.0361,1.0427,1.0519,1.0591,1.056,1.0754,1.0727,1.0794,1.0792,1.0835,1.0832,1.0981,1.087,1.0869,1.0869,1.0869,0,0.9389,0.9496,0.9606,0.9686,0.9807,0.9879,0.9998,1.0065,1.016,1.0255,1.0299,1.0389,1.0476,1.0578,1.0635,1.0767,1.0796,1.0834,1.0849,1.0832,1.0828,1.0877,1.0872,1.0874,1.0873,1.0872,1.0871,0,0.9459,0.9537,0.9682,0.981,0.9845,0.9929,1.004,1.0121,1.0185,1.0305,1.0338,1.044,1.0562,1.0642,1.0797,1.0836,1.0981,1.0992,1.0944,1.0952,1.1016,1.101,1.1205,1.1236,1.11,1.1101,1.1102,0,0.9531,0.9614,0.9751,0.9818,0.9883,0.999,1.0064,1.0138,1.0213,1.0345,1.0411,1.0535,1.0639,1.0832,1.0922,1.1042,1.1058,1.1118,1.1077,1.1058,1.1064,1.1059,1.1069,1.1125,1.1127,1.1127,1.1128,0,0.965,0.9685,0.9789,0.9908,0.9995,1.0092,1.0189,1.0242,1.0333,1.0416,1.0541,1.0622,1.0781,1.0906,1.1034,1.1103,1.1133,1.114,1.1163,1.1148,1.1119,1.1139,1.0966,1.1136,1.1135,1.1135,1.1134,1.1134,0.9726,0.9803,0.9913,1.0028,1.0109,1.02,1.0283,1.0358,1.0463,1.0598,1.0635,1.0767,1.0877,1.1052,1.1123,1.1229,1.1223,1.1254,1.1263,1.1271,1.1273,1.1099,1.1252,1.1252,1.1252,1.1252,1.1252,0,0.9851,0.9924,1.0029,1.0165,1.0256,1.0273,1.0383,1.0459,1.0574,1.0673,1.0774,1.092,1.1041,1.114,1.1266,1.1331,1.1348,1.1362,1.136,1.1376,1.127,1.1239,1.1347,1.1347,1.1347,1.1347,1.1347,1.1347,0.9927,1.006,1.0108,1.0282,1.0355,1.0484,1.0545,1.063,1.071,1.087,1.0971,1.1034,1.1134,1.1268,1.1381,1.1407,1.1453,1.1465,1.1494,1.1394,1.1383,1.1373,1.1345,1.1473,1.1474,1.1593,1.1594,1.1595]},{"header":{"parameterUnit":"m.s-1","parameterCategory":1,"la1":30.2991,"la2":30.254,"lo1":-89.0895,"lo2":-89.0444,"dy":0.0017,"dx":0.0017,"nx":28,"ny":28,"refTime":"2023-08-11T09:00:00:Z","depth":0,"parameterNumber":3,"parameterNumberName":"V-component_of_WINDS"},"data":[0,0,0,0,0,0,0,0,0,0,0,0,0,0,0,0,0,0,0,0,0,0,0,0,0,0,0,0,0,0,0,0,0,0,0,0,0,0,0,0,0,0,0,0,0,0,0,0,0,0,0,0,0,0,0,0,0,0,5.5064,5.5065,0,5.5234,5.5236,5.5238,5.5232,5.523,5.5228,5.5225,5.5387,5.5394,5.54,0,0,0,0,0,0,0,0,0,0,0,0,0,5.4722,5.4728,5.5063,5.5066,5.5068,5.5234,5.5236,5.5238,5.5233,5.523,5.5227,5.5224,5.5385,5.5393,5.5401,0,0,0,0,0,0,0,0,0,0,0,0,0,5.4879,5.473,5.5063,5.5085,5.5089,5.5233,5.5236,5.5239,5.5233,5.523,5.5226,5.5223,5.5383,5.5392,5.5402,5.5531,0,0,5.5431,5.5436,0,0,0,0,0,0,0,0,5.487,5.4891,5.508,5.5084,5.5088,5.5209,5.5175,5.5337,5.5234,5.5178,5.5225,5.5221,5.533,5.5344,5.5383,5.5539,5.5546,5.5432,5.5438,5.5442,5.5445,0,0,0,0,0,0,0,5.4859,5.4884,5.513,5.5083,5.5088,5.5083,5.5101,5.5206,5.5271,5.5183,5.5183,5.5204,5.5331,5.5374,5.5387,5.5548,5.5432,5.5441,5.5447,5.545,5.582,5.5824,0,0,0,0,0,0,5.4845,5.4875,5.5125,5.5136,5.4969,5.5092,5.5113,5.5173,5.527,5.5282,5.5206,5.5203,5.5359,5.5375,5.5392,5.5553,5.5442,5.5451,5.5457,5.5816,5.5821,5.5826,0,0,0,0,0,0,5.4838,5.4867,5.5118,5.5006,5.5037,5.5102,5.517,5.5178,5.5221,5.5288,5.5298,5.5239,5.5357,5.5379,5.5498,5.5558,5.5456,5.5465,5.5812,5.5818,5.5823,5.5873,0,0,0,0,0,0,5.4828,5.4865,5.4917,5.5007,5.5043,5.5225,5.5173,5.5184,5.5239,5.5236,5.5321,5.5331,5.5356,5.5484,5.5508,5.557,5.5472,5.5807,5.5814,5.5822,5.5866,5.588,5.5891,0,0,0,0,0,5.4816,5.4921,5.492,5.495,5.5111,5.5228,5.5249,5.5278,5.5244,5.5296,5.5339,5.5329,5.5547,5.5496,5.5523,5.5589,5.5803,5.5812,5.5821,5.586,5.5877,5.5891,0,0,0,0,0,0,5.4832,5.4933,5.4933,5.5071,5.5142,5.5227,5.5294,5.5294,5.5372,5.5366,5.5395,5.5414,5.5534,5.5572,5.5514,5.572,5.567,5.5685,5.5691,5.5707,5.572,5.5708,5.548,0,0,0,0,0,5.4853,5.4944,5.5025,5.5139,5.5175,5.5228,5.528,5.5298,5.537,5.5398,5.545,5.5517,5.5601,5.5656,5.5736,5.5871,5.5889,5.5929,5.5941,5.5952,5.5964,5.604,5.6059,5.5855,5.5855,5.5855,0,0,5.4894,5.4961,5.5015,5.5144,5.5201,5.5292,5.5253,5.535,5.5417,5.5411,5.553,5.557,5.5646,5.5775,5.5833,5.581,5.6025,5.5963,5.5971,5.5978,5.6051,5.607,5.6087,5.5861,5.586,5.5859,0,0,5.5017,5.5077,5.518,5.5239,5.5327,5.5362,5.5386,5.5473,5.5501,5.5621,5.5619,5.5696,5.584,5.5896,5.5943,5.6089,5.6083,5.6114,5.618,5.6253,5.6269,5.6284,5.6337,5.6356,5.6126,5.6126,5.6126,0,5.5057,5.5198,5.5231,5.5331,5.5387,5.5391,5.5495,5.5548,5.5656,5.5693,5.5666,5.5849,5.59,5.6043,5.6079,5.6116,5.6144,5.6105,5.6265,5.628,5.6293,5.6345,5.6365,5.613,5.6129,5.6129,5.6128,0,5.5243,5.5341,5.5412,5.5523,5.5587,5.5687,5.5733,5.5792,5.5804,5.5841,5.5962,5.6025,5.6119,5.6154,5.6163,5.6298,5.6281,5.6259,5.621,5.6316,5.6365,5.6385,5.6134,5.6133,5.6132,5.6131,0,0,5.5381,5.5512,5.5538,5.5589,5.5687,5.5761,5.586,5.5958,5.6009,5.6082,5.6166,5.6289,5.6271,5.6324,5.6339,5.6403,5.6517,5.6374,5.6376,5.64,5.667,5.6688,5.671,5.6513,5.6517,5.652,5.6665,0,5.5517,5.57,5.5733,5.5891,5.5982,5.5987,5.6073,5.6141,5.6178,5.6257,5.6295,5.6384,5.6351,5.6384,5.6447,5.649,5.6572,5.648,5.6589,5.6593,5.6573,5.6736,5.6754,5.6888,5.6684,5.6687,5.6689,0,5.5699,5.5784,5.5953,5.6042,5.6081,5.6159,5.6252,5.6328,5.6403,5.6425,5.6487,5.6496,5.6596,5.6542,5.6681,5.6618,5.6664,5.6691,5.6697,5.671,5.6649,5.6754,5.6931,5.6952,5.6719,5.6717,5.6715,0,5.5787,5.5942,5.6064,5.6107,5.6212,5.6267,5.6313,5.6386,5.6443,5.6522,5.6559,5.6646,5.6695,5.6761,5.6792,5.675,5.6929,5.6877,5.695,5.6949,5.6989,5.6986,5.7177,5.7015,5.7015,5.7014,5.7014,0,5.5935,5.6039,5.6105,5.618,5.6296,5.6331,5.6443,5.6486,5.6552,5.6633,5.664,5.6715,5.6751,5.6831,5.6855,5.6967,5.6988,5.7007,5.7013,5.7009,5.7006,5.704,5.7033,5.7019,5.7018,5.7017,5.7016,0,5.6053,5.6102,5.6236,5.6326,5.6351,5.6432,5.6508,5.6579,5.6616,5.6719,5.6745,5.6801,5.6896,5.6934,5.7047,5.7064,5.7194,5.719,5.717,5.7172,5.7243,5.7237,5.7465,5.7497,5.7311,5.7313,5.7314,0,5.6146,5.6227,5.6328,5.6386,5.6435,5.6526,5.6586,5.6622,5.6684,5.6778,5.6837,5.6933,5.7012,5.7162,5.7211,5.7298,5.7298,5.7372,5.7311,5.7305,5.7302,5.7298,5.7307,5.7384,5.7386,5.7387,5.7388,0,5.6307,5.6328,5.6416,5.6514,5.6587,5.6664,5.6738,5.6784,5.6831,5.6899,5.6999,5.7061,5.718,5.7274,5.7365,5.7407,5.7406,5.7407,5.7429,5.7426,5.7412,5.7423,5.7203,5.7402,5.7401,5.74,5.7399,5.7398,5.6417,5.649,5.6574,5.6672,5.6733,5.6804,5.6877,5.6925,5.701,5.7114,5.7129,5.7235,5.7308,5.7431,5.7477,5.7559,5.754,5.757,5.7579,5.7586,5.7593,5.7398,5.7575,5.7574,5.7574,5.7574,5.7574,0,5.658,5.6635,5.6726,5.6833,5.691,5.6907,5.6989,5.7053,5.7149,5.722,5.7299,5.7413,5.7505,5.7562,5.7654,5.7709,5.771,5.7732,5.7729,5.7739,5.7603,5.7577,5.7729,5.7729,5.7729,5.7729,5.7729,5.7729,5.6675,5.6799,5.683,5.6984,5.7036,5.7146,5.7194,5.7258,5.7315,5.7445,5.7524,5.7562,5.7627,5.7724,5.7807,5.7821,5.7855,5.7879,5.7891,5.7764,5.7748,5.7733,5.7708,5.7885,5.7886,5.8021,5.8022,5.8023]}]]